Location: Fort Worth, Tx
(32.7431°N, 97.3695°W)
Time: 17:26:01
(UTC-04:00)

A-11 Canister half - Pass Details

Date: 26 February 2024
Orbit: 1525 x 1683 km, 47.3° (Epoch: 21 April)

Event Time Altitude Azimuth Distance (km) Brightness Sun altitude
Rises 20:44:28 0° 224° (SW) 4,823 12.3 -17.7°
Reaches altitude 10° 20:47:36 10° 223° (SW) 3,817 11.6 -18.3°
Maximum altitude 20:57:16 78° 139° (SE) 1,598 8.9 -20.4°
Enters shadow 21:03:48 23° 56° (ENE) 2,831 9.9 -21.7°
